Salida, CO

8:46 AM MST on February 27, 2017 (GMT -0700)
Salida

Weather History for KANK - February, 2012

Change the Weather History Date:

Sunday, February 12, 2012

  Actual Average (KGUC) Record (KGUC)
Temperature  
Mean Temperature 26 °F -  
Max Temperature 38 °F 27 °F 41 °F (2002)
Min Temperature 14 °F 2 °F -22 °F (2006)
Degree Days  
Heating Degree Days 39    
Moisture  
Dew Point 20 °F    
Average Humidity 75    
Maximum Humidity 94    
Minimum Humidity 50    
Precipitation  
Precipitation 0.00 in - - ()
Sea Level Pressure  
Sea Level Pressure 29.92 in    
Wind  
Wind Speed 6 mph (WNW)    
Max Wind Speed 20 mph    
Max Gust Speed 28 mph    
Visibility 10 miles    
Events      
Averages and records for this station are not official NWS values.
T = Trace of Precipitation, MM = Missing Value Source: NWS Daily Summary

Daily Weather History Graph

Daily Weather History Graph

Search for Another Location

Airport or City:

Trip Planner

Search our weather history database for the weather conditions in past years. The results will help you decide how hot, cold, wet, or windy it might be!

Date:

Astronomy

Feb. 12, 2012 Rise Set
Actual Time 6:58 AM MST 5:38 PM MST
Civil Twilight 6:31 AM MST 6:05 PM MST
Nautical Twilight 6:00 AM MST 6:36 PM MST
Astronomical Twilight 5:29 AM MST 7:07 PM MST
Moon 11:34 PM MST (2/12) 9:24 AM MST (2/12)
Length of Visible Light 11h 34m
Length of Day
10h 39m
Waning Gibbous, 71% of the Moon is Illuminated
Feb 12
Waning Gibbous
Feb 14
Last Quarter
Feb 21
New
Feb 29
First Quarter
Mar 8
Full

Hourly Weather History & Observations

Time (MST) Temp. Windchill Dew Point Humidity Pressure Visibility Wind Dir Wind Speed Gust Speed Precip Events Conditions
12:15 AM 17.4 °F - 15.4 °F 92% 30.15 in 7.0 mi Calm Calm - N/A   Overcast
12:35 AM 17.6 °F - 15.6 °F 92% 30.14 in 7.0 mi Calm Calm - N/A   Overcast
12:55 AM 17.2 °F - 15.3 °F 92% 30.14 in 7.0 mi Calm Calm - N/A   Overcast
1:15 AM 16.7 °F - 14.9 °F 93% 30.12 in 7.0 mi Calm Calm - N/A   Overcast
1:35 AM 15.8 °F 10.2 °F 13.6 °F 91% 30.11 in 7.0 mi West 3.5 mph - N/A   Scattered Clouds
1:55 AM 14.5 °F - 12.0 °F 90% 30.10 in 10.0 mi Calm Calm - N/A   Scattered Clouds
2:15 AM 15.8 °F - 13.6 °F 91% 30.10 in 10.0 mi Calm Calm - N/A   Clear
2:35 AM 16.0 °F - 13.6 °F 90% 30.09 in 10.0 mi Calm Calm - N/A   Clear
2:55 AM 16.9 °F 9.8 °F 14.5 °F 91% 30.07 in 10.0 mi NW 4.6 mph - N/A   Clear
3:15 AM 17.2 °F 6.0 °F 14.7 °F 90% 30.05 in 10.0 mi NNW 9.2 mph - N/A   Clear
3:35 AM 18.5 °F - 15.6 °F 89% 30.05 in 10.0 mi Calm Calm - N/A   Clear
4:15 AM 18.5 °F 9.3 °F 15.3 °F 87% 30.03 in 10.0 mi North 6.9 mph - N/A   Clear
4:35 AM 19.4 °F 11.5 °F 15.8 °F 86% 30.02 in 10.0 mi NNW 5.8 mph - N/A   Scattered Clouds
4:55 AM 18.5 °F 5.5 °F 14.9 °F 86% 30.01 in 10.0 mi NNW 12.7 mph - N/A   Scattered Clouds
5:15 AM 19.2 °F 5.8 °F 14.9 °F 83% 30.01 in 10.0 mi NNW 13.8 mph - N/A   Scattered Clouds
5:35 AM 20.3 °F 7.2 °F 15.3 °F 81% 30.02 in 10.0 mi NW 13.8 mph 19.6 mph N/A   Mostly Cloudy
5:55 AM 20.8 °F 7.9 °F 15.4 °F 80% 30.01 in 10.0 mi NNW 13.8 mph - N/A   Overcast
6:15 AM 21.2 °F 9.5 °F 15.6 °F 79% 30.00 in 10.0 mi NNW 11.5 mph - N/A   Overcast
6:35 AM 21.6 °F 10.6 °F 15.6 °F 78% 30.00 in 10.0 mi NNW 10.4 mph - N/A   Overcast
6:55 AM 21.9 °F 11.7 °F 15.8 °F 77% 30.00 in 10.0 mi NNW 9.2 mph - N/A   Overcast
7:15 AM 22.1 °F - 16.7 °F 80% 29.99 in 10.0 mi Calm Calm - N/A   Overcast
7:35 AM 22.3 °F - 17.2 °F 81% 29.98 in 10.0 mi Calm Calm - N/A   Overcast
7:55 AM 23.2 °F - 18.0 °F 80% 29.98 in 10.0 mi Calm Calm - N/A   Overcast
8:15 AM 24.8 °F 20.5 °F 18.5 °F 77% 29.99 in 10.0 mi NNW 3.5 mph - N/A   Overcast
8:35 AM 25.7 °F - 19.0 °F 76% 29.99 in 10.0 mi Calm Calm - N/A   Overcast
8:55 AM 27.3 °F 19.1 °F 20.8 °F 77% 29.98 in 10.0 mi North 8.1 mph - N/A   Overcast
9:15 AM 26.8 °F 17.7 °F 19.6 °F 74% 29.98 in 10.0 mi North 9.2 mph - N/A   Mostly Cloudy
9:35 AM 27.7 °F 18.2 °F 20.7 °F 75% 29.97 in 10.0 mi NNW 10.4 mph - N/A   Overcast
9:55 AM 30.6 °F 24.7 °F 21.7 °F 70% 29.96 in 10.0 mi NNW 5.8 mph - N/A   Mostly Cloudy
10:15 AM 31.1 °F 25.4 °F 21.9 °F 69% 29.95 in 10.0 mi NW 5.8 mph - N/A   Overcast
10:35 AM 32.0 °F 25.6 °F 22.1 °F 67% 29.94 in 10.0 mi NNW 6.9 mph - N/A   Overcast
10:55 AM 34.0 °F 28.8 °F 23.4 °F 65% 29.93 in 10.0 mi NW 5.8 mph - N/A   Overcast
11:15 AM 34.5 °F 29.4 °F 23.2 °F 63% 29.92 in 10.0 mi North 5.8 mph - N/A   Overcast
11:35 AM 35.2 °F 30.3 °F 22.8 °F 61% 29.91 in 10.0 mi SSW 5.8 mph - N/A   Overcast
11:55 AM 36.0 °F 27.1 °F 22.1 °F 57% 29.90 in 10.0 mi SSW 13.8 mph - N/A   Overcast
12:15 PM 37.0 °F 33.3 °F 23.0 °F 57% 29.88 in 10.0 mi WSW 4.6 mph - N/A   Overcast
12:35 PM 37.4 °F 32.8 °F 23.4 °F 57% 29.87 in 10.0 mi South 5.8 mph - N/A   Overcast
12:55 PM 36.3 °F 28.4 °F 21.9 °F 56% 29.86 in 10.0 mi South 11.5 mph 20.7 mph N/A   Mostly Cloudy
1:15 PM 36.9 °F 28.2 °F 21.2 °F 53% 29.83 in 10.0 mi SSW 13.8 mph 18.4 mph N/A   Scattered Clouds
1:35 PM 36.1 °F 27.7 °F 21.2 °F 55% 29.82 in 10.0 mi South 12.7 mph 21.9 mph N/A   Mostly Cloudy
1:55 PM 36.3 °F 28.9 °F 21.7 °F 56% 29.80 in 10.0 mi South 10.4 mph 20.7 mph N/A   Mostly Cloudy
2:15 PM 38.8 °F 29.7 °F 21.7 °F 50% 29.78 in 10.0 mi South 17.3 mph 25.3 mph N/A   Scattered Clouds
2:35 PM 38.8 °F 30.4 °F 21.7 °F 50% 29.77 in 10.0 mi South 15.0 mph 23.0 mph N/A   Clear
2:55 PM 36.5 °F 26.0 °F 21.9 °F 56% 29.77 in 10.0 mi South 19.6 mph 27.6 mph N/A   Scattered Clouds
3:15 PM 37.2 °F 27.6 °F 22.1 °F 54% 29.77 in 10.0 mi South 17.3 mph 27.6 mph N/A   Mostly Cloudy
3:35 PM 37.2 °F 27.6 °F 22.5 °F 55% 29.77 in 10.0 mi South 17.3 mph 26.5 mph N/A   Overcast
3:55 PM 37.6 °F 34.0 °F 22.5 °F 54% 29.78 in 10.0 mi NW 4.6 mph - N/A   Overcast
4:15 PM 35.8 °F 28.3 °F 22.3 °F 58% 29.76 in 10.0 mi SW 10.4 mph 18.4 mph N/A   Mostly Cloudy
4:35 PM 34.9 °F 25.7 °F 21.9 °F 59% 29.77 in 10.0 mi SW 13.8 mph 24.2 mph N/A   Mostly Cloudy
4:55 PM 33.3 °F 22.5 °F 22.1 °F 64% 29.77 in 10.0 mi South 17.3 mph 27.6 mph N/A   Overcast
5:15 PM 32.2 °F 25.0 °F 23.2 °F 69% 29.79 in 10.0 mi WSW 8.1 mph 17.3 mph N/A   Overcast
5:35 PM 29.7 °F 22.0 °F 27.3 °F 91% 29.78 in 0.5 mi SSW 8.1 mph - N/A   Overcast
5:55 PM 29.3 °F 20.8 °F 27.0 °F 91% 29.77 in 0.8 mi SSW 9.2 mph 16.1 mph N/A   Overcast
6:15 PM 30.0 °F 26.5 °F 26.8 °F 88% 29.77 in 10.0 mi SW 3.5 mph - N/A   Overcast
6:35 PM 29.3 °F 24.3 °F 27.5 °F 93% 29.77 in 10.0 mi North 4.6 mph - N/A   Mostly Cloudy
6:55 PM 28.6 °F 22.4 °F 27.1 °F 94% 29.77 in 10.0 mi NNE 5.8 mph - N/A   Scattered Clouds
7:15 PM 27.9 °F - 26.2 °F 94% 29.77 in 10.0 mi Calm Calm - N/A   Scattered Clouds
7:35 PM 28.9 °F - 26.8 °F 92% 29.77 in 10.0 mi Calm Calm - N/A   Scattered Clouds
7:55 PM 28.4 °F 23.3 °F 26.6 °F 93% 29.76 in 10.0 mi NNW 4.6 mph - N/A   Clear
8:15 PM 30.6 °F 23.1 °F 22.6 °F 72% 29.75 in 10.0 mi SW 8.1 mph - N/A   Clear
8:35 PM 27.3 °F - 24.8 °F 90% 29.76 in 10.0 mi Calm Calm - N/A   Clear
8:55 PM 27.9 °F 24.0 °F 23.7 °F 84% 29.76 in 10.0 mi WSW 3.5 mph - N/A   Clear
9:15 PM 28.0 °F 20.8 °F 23.5 °F 83% 29.76 in 10.0 mi NW 6.9 mph - N/A   Clear
9:35 PM 29.1 °F 25.4 °F 23.4 °F 79% 29.76 in 10.0 mi NW 3.5 mph - N/A   Clear
9:55 PM 28.4 °F 21.2 °F 23.0 °F 80% 29.77 in 10.0 mi NW 6.9 mph - N/A   Clear
10:15 PM 28.0 °F - 22.8 °F 81% 29.76 in 10.0 mi Calm Calm - N/A   Clear
10:35 PM 28.4 °F 24.6 °F 23.2 °F 81% 29.76 in 10.0 mi NW 3.5 mph - N/A   Clear
10:55 PM 25.7 °F - 22.5 °F 88% 29.76 in 10.0 mi Calm Calm - N/A   Clear
11:15 PM 28.6 °F 21.5 °F 22.1 °F 77% 29.75 in 10.0 mi West 6.9 mph - N/A   Clear
11:35 PM 31.1 °F 21.4 °F 21.7 °F 68% 29.75 in 10.0 mi WSW 12.7 mph 18.4 mph N/A   Scattered Clouds
11:55 PM 31.1 °F 22.4 °F 22.1 °F 69% 29.75 in 10.0 mi SW 10.4 mph 18.4 mph N/A   Scattered Clouds